Regional Weather Roundup
Issued by NWS

Home | Current Version | Previous Version | Graphics & Text | Print | Product List | Glossary Off
Versions: 1 2 3 4 5 6 7 8 9 10 11 12 13 14 15 16 17 18 19 20 21 22 23 24 25 26 27 28 29 30 31 32 33 34 35 36 37 38 39 40 41 42 43 44 45 46 47 48 49 50

649
ASUS43 KTOP 112059
RWRKS

WEATHER ROUNDUP FOR KANSAS
NATIONAL WEATHER SERVICE GOODLAND KS
300 PM CST MON DEC 11 2017

NOTE:  "FAIR" INDICATES FEW OR NO CLOUDS BELOW 12,000 FEET WITH NO
SIGNIFICANT WEATHER AND/OR OBSTRUCTIONS TO VISIBILITY.

KSZ001>006-013>018-027>032-041>047-112200-
NORTHWEST KANSAS

CITY           SKY/WX    TMP DP  RH WIND       PRES   REMARKS
GOODLAND       SUNNY     57   5  12 N32G49    30.25R
HAYS           PTSUNNY   58  14  17 NW24G35   30.17R
HILL CITY      CLOUDY    57  15  19 N23G31    30.20R
RUSSELL        MOSUNNY   57  17  21 N22       30.15R
$$

KSZ061>065-074>080-084>089-112200-
SOUTHWEST KANSAS

CITY           SKY/WX    TMP DP  RH WIND       PRES   REMARKS
DODGE CITY     SUNNY     63  11  13 N25G45    30.18S
GARDEN CITY    SUNNY     62   7  11 N30G45    30.21S
GREAT BEND     SUNNY     62  12  14 N26G35    30.14S
LIBERAL        SUNNY     65  14  14 N21       30.22S
$$

KSZ066>073-081>083-090>101-112200-
SOUTHEAST KANSAS

CITY           SKY/WX    TMP DP  RH WIND       PRES   REMARKS
CHANUTE        CLOUDY    59  17  19 NW20G26   30.04R
COFFEYVILLE    MOSUNNY   66  16  14 NW24G35   30.04R
HUTCHINSON     SUNNY     64  15  15 NW28G37   30.10S
MEDICINE LODGE   N/A     66  17  15 NW18G28   30.12F
NEWTON         MOSUNNY   57  17  21 NW25G33   30.11R
PARSONS        CLOUDY    62  15  16 NW17G29   30.05R
WICHITA INTL   PTSUNNY   63  16  16 NW23G31   30.09R
WICHITA JABRA  MOSUNNY   60  13  15 NW26G37   30.09R
WICHITA MCCONL PTSUNNY   62  14  15 N23G31    30.08R
WINFIELD       SUNNY     67  15  13 NW24G32   30.08S
$$

KSZ007>012-019>026-033>040-048>060-102>105-112200-
NORTHEAST KANSAS

CITY           SKY/WX    TMP DP  RH WIND       PRES   REMARKS
CONCORDIA      CLOUDY    51  26  37 N23G36    30.14R
EMPORIA        CLOUDY    56  22  26 N23G35    30.07R
LAWRENCE       PTSUNNY   56  28  34 NW26G36   30.03R
MANHATTAN      CLOUDY    54  26  34 NW16G28   30.11R
OLATHE IND     PTSUNNY   53  26  35 NW23G38   30.02R
OLATHE EXE     PTSUNNY   54  27  35 NW22G37   30.00R
SALINA         PTSUNNY   56  23  27 N23G31    30.14R
TOPEKA BILLARD PTSUNNY   55  28  35 NW21G32   30.05R
TOPEKA FORBES  PTSUNNY   55  28  35 NW23G43   30.05R
$$




USA.gov is the U.S. government's official web portal to all federal, state and local government web resources and services.